Weather History for LIVT - September, 2012

Change the Weather History Date:

Wednesday, September 12, 2012

  Actual Average Record
Temperature  
Mean Temperature 72 °F -  
Max Temperature 81 °F 70 °F 84 °F (1999)
Min Temperature 64 °F 59 °F 55 °F (2001)
Cooling Degree Days 8    
Growing Degree Days 22 (Base 50)    
Moisture  
Dew Point 61 °F    
Average Humidity 70    
Maximum Humidity 88    
Minimum Humidity 45    
Precipitation  
Precipitation 0.47 in 0.13 in - ()
Sea Level Pressure  
Sea Level Pressure 29.76 in    
Wind  
Wind Speed 3 mph ()    
Max Wind Speed 7 mph    
Max Gust Speed 18 mph    
Visibility 5.4 miles    
Events Rain , Thunderstorm    
Averages and records for this station are not official NWS values.
T = Trace of Precipitation, MM = Missing Value Source: Averaged Metar Reports

Daily Weather History Graph

Daily Weather History Graph

Search for Another Location

Airport or City:

Trip Planner

Search our weather history database for the weather conditions in past years. The results will help you decide how hot, cold, wet, or windy it might be!

Date:

Astronomy

Sep. 12, 2012 Rise Set
Actual Time 6:39 AM CEST 7:21 PM CEST
Civil Twilight 6:09 AM CEST 7:51 PM CEST
Nautical Twilight 5:34 AM CEST 8:27 PM CEST
Astronomical Twilight 4:57 AM CEST 9:04 PM CEST
Moon 2:29 AM CEST (9/12) 5:06 PM CEST (9/12)
Length of Visible Light 13h 41m
Length of Day
12h 41m
Waning Crescent, 15% of the Moon is Illuminated
Sep 12
Waning Crescent
Sep 16
New
Sep 22
First Quarter
Sep 30
Full
Oct 8
Last Quarter

Hourly Weather History & Observations

Time (CEST) Temp. Heat Index Dew Point Humidity Pressure Visibility Wind Dir Wind Speed Gust Speed Precip Events Conditions
12:55 AM 69.8 °F - 60.8 °F 73% 29.95 in - ENE 4.6 mph - N/A   Clear
1:55 AM 69.8 °F - 60.8 °F 73% 29.92 in - ENE 2.3 mph - N/A   Clear
2:00 AM 69 °F - 61 °F 68% 29.94 in 6 mi ENE 2.3 mph - -  
2:55 AM 68.0 °F - 60.8 °F 78% 29.92 in - ENE 2.3 mph - N/A   Clear
3:55 AM 69.8 °F - 59.0 °F 68% 29.89 in - East 4.6 mph - N/A   Clear
4:55 AM 69.8 °F - 59.0 °F 68% 29.89 in - East 4.6 mph - N/A   Clear
6:55 AM 69.8 °F - 59.0 °F 68% 29.89 in - NE 1.2 mph - N/A   Clear
8:00 AM 72 °F - 56 °F 48% 29.89 in 6 mi East 2.3 mph - -   Partly Cloudy
8:55 AM 77.0 °F - 57.2 °F 50% 29.83 in - Calm Calm - N/A   Clear
9:55 AM 80.6 °F 80.8 °F 57.2 °F 45% 29.83 in - South 5.8 mph - N/A   Clear
10:55 AM 78.8 °F - 57.2 °F 47% 29.83 in 6.2 mi South 6.9 mph - N/A   Scattered Clouds
11:55 AM 77.0 °F - 59.0 °F 54% 29.77 in 6.2 mi SE 4.6 mph - N/A   Scattered Clouds
12:37 PM 75.2 °F - 60.8 °F 61% 29.77 in 4.3 mi ESE 3.5 mph - N/A Thunderstorm Thunderstorm
12:55 PM 75.2 °F - 64.4 °F 69% 29.77 in 3.1 mi ESE 3.5 mph - N/A Rain , Thunderstorm Light Thunderstorms and Rain
1:55 PM 68.0 °F - 64.4 °F 88% 29.77 in 3.7 mi East 2.3 mph - N/A   Scattered Clouds
2:00 PM 68 °F - 64 °F 85% 29.79 in 2 mi East 2.3 mph - - Thunderstorm Light Thunderstorm
2:55 PM 73.4 °F - 66.2 °F 78% 29.74 in 6.2 mi Calm Calm - N/A   Scattered Clouds
3:55 PM 73.4 °F - 64.4 °F 73% 29.71 in 6.2 mi East 3.5 mph - N/A   Mostly Cloudy
4:55 PM 73.4 °F - 66.2 °F 78% 29.68 in 6.2 mi East 4.6 mph - N/A   Mostly Cloudy
5:55 PM 73.4 °F - 60.8 °F 65% 29.65 in 6.2 mi East 5.8 mph - N/A   Mostly Cloudy
6:55 PM 73.4 °F - 60.8 °F 65% 29.62 in 6.2 mi ESE 5.8 mph 17.3 mph N/A   Mostly Cloudy
7:08 PM 69.8 °F - 62.6 °F 78% 29.62 in 6.2 mi ESE 5.8 mph - N/A Rain , Thunderstorm Light Thunderstorms and Rain
7:55 PM 69.8 °F - 60.8 °F 73% 29.59 in 6.2 mi ESE 6.9 mph 18.4 mph N/A Rain , Thunderstorm Light Thunderstorms and Rain
8:00 PM 70 °F - 62 °F 67% 29.62 in 6 mi ESE 6.9 mph - - Rain , Thunderstorm Thunderstorms and Rain
8:55 PM 66.2 °F - 62.6 °F 88% 29.56 in 3.1 mi Calm Calm - N/A Rain , Thunderstorm Heavy Thunderstorms and Rain
9:55 PM 64.4 °F - 60.8 °F 88% 29.59 in 6.2 mi East 4.6 mph - N/A Rain , Thunderstorm Light Thunderstorms and Rain
10:55 PM 66.2 °F - 62.6 °F 88% 29.56 in 6.2 mi NNE 1.2 mph - N/A   Light Drizzle
11:55 PM 66.2 °F - 62.6 °F 88% 29.56 in 6.2 mi NW 5.8 mph - N/A Rain Rain